This is the latest recevied weather packets stored in our database for station/object N2XGL-1. If no packets are shown the sender has not sent any weather packets the latest 1 day(s).
| Time | Temp. | Humidity | Pressure | Rain* | Wind** | Luminosity | Snow |
|---|---|---|---|---|---|---|---|
| 1777978038 | 2.78° C | 91% | 1007.6 hPa | 1.27 mm | 2.24 m/s, 0° | - | - |
| 1777977453 | 2.78° C | 91% | 1007.5 hPa | 1.02 mm | 2.24 m/s, 0° | - | - |
| 1777976851 | 2.78° C | 91% | 1007.5 hPa | 0.76 mm | 2.24 m/s, 0° | - | - |
| 1777976269 | 3.33° C | 91% | 1007.5 hPa | 0.76 mm | 2.68 m/s, 0° | - | - |
| 1777975681 | 3.89° C | 90% | 1007.1 hPa | 0.51 mm | 3.13 m/s, 0° | - | - |
| 1777975181 | 5° C | 92% | 1006.9 hPa | 0.25 mm | 2.68 m/s, 0° | - | - |
| 1777974658 | 5° C | 92% | 1006.7 hPa | 0.25 mm | 2.68 m/s, 0° | - | - |
| 1777974079 | 5° C | 91% | 1006.6 hPa | 0.25 mm | 2.68 m/s, 0° | - | - |
| 1777973068 | 5.56° C | 92% | 1006.3 hPa | 0.51 mm | 1.79 m/s, 0° | - | - |
| 1777971969 | 5.56° C | 91% | 1006.1 hPa | 0.76 mm | 3.13 m/s, 0° | - | - |
| 1777971409 | 5.56° C | 91% | 1006.2 hPa | 1.02 mm | 2.24 m/s, 0° | - | - |
| 1777970278 | 6.11° C | 90% | 1006 hPa | 0.76 mm | 3.13 m/s, 0° | - | - |
| 1777969754 | 6.11° C | 90% | 1005.8 hPa | 0.76 mm | 3.13 m/s, 0° | - | - |
| 1777969116 | 6.11° C | 89% | 1005.7 hPa | 0.25 mm | 2.68 m/s, 0° | - | - |
| 1777968697 | 6.11° C | 89% | 1005.7 hPa | 0.25 mm | 2.68 m/s, 0° | - | - |
| 1777968103 | 6.11° C | 88% | 1005.5 hPa | 0 mm | 3.58 m/s, 0° | - | - |
| 1777967518 | 6.11° C | 88% | 1005.7 hPa | 0 mm | 3.58 m/s, 0° | - | - |
| 1777967013 | 6.67° C | 87% | 1005.5 hPa | 0 mm | 3.13 m/s, 0° | - | - |
| 1777966523 | 6.67° C | 87% | 1005.7 hPa | 0 mm | 2.24 m/s, 0° | - | - |
| 1777965988 | 6.67° C | 86% | 1005.5 hPa | 0 mm | 3.58 m/s, 0° | - | - |
| 1777965443 | 7.22° C | 86% | 1005.6 hPa | 0 mm | 3.58 m/s, 0° | - | - |
| 1777964921 | 7.22° C | 86% | 1005.5 hPa | 0 mm | 3.13 m/s, 0° | - | - |
| 1777964408 | 7.22° C | 85% | 1005.5 hPa | 0 mm | 3.13 m/s, 0° | - | - |
| 1777963844 | 7.78° C | 86% | 1005.4 hPa | 0 mm | 3.13 m/s, 0° | - | - |
| 1777963511 | 8.33° C | 89% | 1005.2 hPa | 0 mm | 3.58 m/s, 0° | - | - |
* Rain latest hour (hover to see other rain measurements)
** Current wind speed in m/s (hover to see current wind gust speed)